Regional Weather Roundup
Issued by NWS

Home | Current Version | Previous Version | Graphics & Text | Print | Product List | Glossary On
Versions: 1 2 3 4 5 6 7 8 9 10 11 12 13 14 15 16 17 18 19 20 21 22 23 24 25 26 27 28 29 30 31 32 33 34 35 36 37 38 39 40 41 42 43 44 45 46 47 48 49 50
434
ASUS43 KMPX 291610
RWRMN
WEATHER ROUNDUP FOR MINNESOTA
NATIONAL WEATHER SERVICE TWIN CITIES/CHANHASSEN MN
1100 AM CDT FRI APR 29 2016


NOTE: "FAIR" INDICATES FEW OR NO CLOUDS BELOW 12,000 FEET WITH NO
SIGNIFICANT WEATHER AND/OR OBSTRUCTIONS TO VISIBILITY. N/A MEANS
CURRENT SKY AND/OR WEATHER CONDITIONS ARE NOT AVAILABLE.

MNZ060>063-068>070-291700-
   Twin Cities Metro

CITY           SKY/WX    TMP DP  RH WIND       PRES   REMARKS
TWIN CITIES    MOSUNNY   49  33  54 N15G21    30.15F
ST PAUL        SUNNY     48  34  58 NE8       30.16F
CRYSTAL        SUNNY     50  34  54 N13       30.15F
BLAINE         SUNNY     48  36  61 NE10      30.16F
EDEN PRAIRIE   SUNNY     49  35  58 N12       30.13F
SOUTH ST PAUL  SUNNY     47  36  63 NE10      30.15F
LAKE ELMO      FAIR      46  36  66 N8        30.16F
$$
MNZ001>005-007-008-013>017-022>024-027-028-291700-
   Northwest Minnesota

CITY           SKY/WX    TMP DP  RH WIND       PRES   REMARKS
BEMIDJI        SUNNY     50  31  48 N7        30.19S
HALLOCK        SUNNY     55  28  35 NE5       30.23F
ROSEAU         SUNNY     52  37  58 E15G22    30.23S
WARROAD        SUNNY     45  36  70 NE8       30.25S
THIEF RVR FALL CLOUDY    52  28  40 NE9G18    30.23S
CROOKSTON      CLOUDY    54  30  40 E13G21    30.22F
FOSSTON        MOSUNNY   52  34  50 N13       30.20F
DETROIT LAKES  SUNNY     52  34  50 CALM      30.18F
MOORHEAD       SUNNY     52  37  58 CALM      30.20S
PARK RAPIDS    SUNNY     54  28  36 NE5       30.16F
MAHNOMEN       FAIR      52  31  44 NE8       30.17F
$$
MNZ006-009>011-018-025>026-291700-
   North Central Minnesota

CITY           SKY/WX    TMP DP  RH WIND       PRES   REMARKS
BAUDETTE       SUNNY     52  30  43 NE12      30.22S
FLAG ISLAND    SUNNY     46  30  53 N12       30.23F
INTL FALLS     SUNNY     49  31  49 NE10      30.22S
WASKISH        SUNNY     52  32  46 NE9G16    30.20F
BIG FORK       SUNNY     54  30  40 N7        30.19S
LONGVILLE      MOSUNNY   54  27  35 CALM      30.17F
GRAND RAPIDS   SUNNY     50  27  40 NE3       30.20S
CRANE LAKE     MOSUNNY   46  30  53 NE5       30.24R
ORR            SUNNY     50  25  37 CALM      30.18S
COOK           CLOUDY    48  30  49 N6        30.20S
WALKER         FAIR      49  33  52 E7        30.17F
$$
MNZ012-019>021-037-291700-
   Northeast Minnesota

CITY           SKY/WX    TMP DP  RH WIND       PRES   REMARKS
DULUTH         MOSUNNY   48  29  47 CALM      30.19R
ELY            CLOUDY    46  30  53 N7        30.20S
HIBBING        CLOUDY    48  27  44 N5        30.18F
EVELETH        MOSUNNY   52  30  43 E6        30.19F
DULUTH HARBOR  SUNNY     43  32  65 CALM      30.22S
TWO HARBORS    SUNNY     50  36  57 E10       30.18R
SILVER BAY     SUNNY     48  30  49 SE8       30.17F
GRAND MARAIS     N/A     41  31  67 SW3       30.21S
G MARAIS ARPRT CLOUDY    46  25  42 NW10      30.18S
$$
MNZ029>031-032-039>041-046>048-054>057-064-291700-
   West Central Minnesota

CITY           SKY/WX    TMP DP  RH WIND       PRES   REMARKS
FERGUS FALLS   SUNNY     52  39  62 W7        30.16F
WHEATON        SUNNY     55  41  58 N9        30.18F
MORRIS         SUNNY     52  43  71 N10       30.16F
ALEXANDRIA     MOSUNNY   50  37  61 N9        30.17F
ELBOW LAKE     FAIR      48  38  68 NW6       30.17F
WADENA         SUNNY     50  36  57 CALM      30.18S
GLENWOOD       MOSUNNY   48  39  71 N9        30.17F
APPLETON       SUNNY     52  37  58 NE13      30.16S
BENSON         MOSUNNY   50  39  66 NE12G17   30.16F
ORTONVILLE     SUNNY     50  37  62 NE7       30.16S
MADISON        MOSUNNY   48  39  71 NE7       30.17S
WILLMAR        FAIR      50  41  71 N16       30.17F
$$
MNZ033>034-036-042>043-049>051-058-059-291700-
   Central Minnesota

CITY           SKY/WX    TMP DP  RH WIND       PRES   REMARKS
ST CLOUD       SUNNY     48  34  58 N9        30.17F
SAUK CENTRE    FAIR      47  39  73 N8        30.17F
PAYNESVILLE    MOSUNNY   47  38  69 N12G21    30.17F
AITKIN         SUNNY     54  23  30 NE6       30.17F
PINE RIVER     SUNNY     52  30  43 NW5       30.20F
BRAINERD       SUNNY     52  28  39 CALM      30.18F
STAPLES        PTSUNNY   50  34  53 CALM      30.18F
LONG PRAIRIE   FAIR      48  34  57 N7        30.17F
LITTLE FALLS   MOSUNNY   48  32  53 CALM      30.18F
LITCHFIELD     SUNNY     48  43  81 N12       30.16F
BUFFALO        SUNNY     46  37  69 N6        30.17F
MAPLE LAKE     SUNNY     47  40  75 N7        30.18F
HUTCHINSON     MOSUNNY   49  40  70 NE9G18    30.16F
$$
MNZ037-044-045-052-053-291700-
   East Central Minnesota

CITY           SKY/WX    TMP DP  RH WIND       PRES   REMARKS
PRINCETON      SUNNY     48  36  61 N7        30.17F
MORA           SUNNY     48  30  49 N3        30.20F
CAMBRIDGE      SUNNY     50  34  53 NE8       30.15F
RUSH CITY      SUNNY     48  32  53 N8        30.18F
MOOSE LAKE     SUNNY     48  27  43 N5        30.18R
HINCKLEY       FAIR      50  32  50 NE6       30.19S
CLOQUET        SUNNY     50  25  37 E5        30.18S
MCGREGOR       MOSUNNY   50  30  46 NE3       30.19S
$$
MNZ071>073-080-081-089-090-097-098-291700-
   Southwest Minnesota

CITY           SKY/WX    TMP DP  RH WIND       PRES   REMARKS
MONTEVIDEO     CLOUDY    48  41  76 E9        30.18F
GRANITE FALLS  CLOUDY    49  41  74 NE10      30.18S
CANBY          CLOUDY    48  42  81 NE8       30.17F
MARSHALL       CLOUDY    44  38  79 NE12      30.16F
REDWOOD FALLS  CLOUDY    48  38  68 N9        30.15F
OLIVIA         PTSUNNY   48  41  76 NE9G16    30.15F
PIPESTONE      PTSUNNY   45  39  81 E12G21    30.11F
WINDOM         MOSUNNY   45  39  81 NE15      30.12F
WORTHINGTON    CLOUDY    40  37  89 NE15      30.12S
JACKSON        CLOUDY    43  37  81 NE14      30.12F
TRACY          PTSUNNY   45  40  83 NE12      30.15S
SLAYTON        CLOUDY    41  39  93 NE14      30.13F
$$
MNZ065>067-074>077-082>085-091>093-291700-
   South Central Minnesota

CITY           SKY/WX    TMP DP  RH WIND       PRES   REMARKS
MANKATO        PTSUNNY   46  36  66 N13       30.15S
NEW ULM        PTSUNNY   46  37  71 NE8       30.14F
ST JAMES       PTSUNNY   41  34  75 NE10      30.14F
FAIRMONT       CLOUDY    43  32  65 NE15      30.12F
GLENCOE        MOSUNNY   49  42  79 N12       30.14F
FARIBAULT      MOSUNNY   48  39  71 N13G18    30.14F
OWATONNA       MOSUNNY   48  36  61 N13       30.13F
WASECA         MOSUNNY   46  36  66 NE10      30.15S
ALBERT LEA     CLOUDY    43  39  87 NE12      30.13S
$$
MNZ078>079-086>088-094>096-291700-
   Southeast Minnesota

CITY           SKY/WX    TMP DP  RH WIND       PRES   REMARKS
ROCHESTER      CLOUDY    43  38  82 NE13      30.13R
RED WING       SUNNY     48  37  66 NW7       30.12F
STANTON        SUNNY     48  39  71 N14       30.12F
DODGE CENTER   PTSUNNY   43  43 100 NE10      30.12F
WINONA         CLOUDY    46  37  71 NE7       30.14S
AUSTIN         CLOUDY    43  37  81 NE8G17    30.12S
PRESTON        CLOUDY    40  36  84 NE10      30.13R
$$
ABBREVIATIONS USED IN REMARKS
   TC - TEMPERATURES IN CELSIUS
  WCI - WIND CHILL INDEX
   HX - HEAT INDEX
  VSB - VISIBILITY
$$




USA.gov is the U.S. government's official web portal to all federal, state and local government web resources and services.